Georgetown, DE

7:25 PM EDT on April 30, 2017 (GMT -0400)
Sussex County

Weather History for KGED - July, 2013

Change the Weather History Date:

Friday, July 19, 2013

  Actual Average Record
Temperature  
Mean Temperature 86 °F 77 °F  
Max Temperature 95 °F 87 °F 101 °F (1953)
Min Temperature 77 °F 68 °F 53 °F (1976)
Degree Days  
Heating Degree Days 0 0  
Month to date heating degree days 0 0  
Since 1 June heating degree days 0 13  
Since 1 July heating degree days 0 0  
Cooling Degree Days 21 12  
Month to date cooling degree days 313 223  
Year to date cooling degree days 757 556  
Since 1 June cooling degree days 600 462  
Growing Degree Days 36 (Base 50)    
Moisture  
Dew Point 74 °F    
Average Humidity 67    
Maximum Humidity 88    
Minimum Humidity 46    
Precipitation  
Precipitation 0.00 in 0.14 in 0.90 in (1969)
Month to date precipitation 5.38 2.68  
Year to date precipitation 32.47 24.23  
Sea Level Pressure  
Sea Level Pressure 29.98 in    
Wind  
Wind Speed 9 mph (SW)    
Max Wind Speed 17 mph    
Max Gust Speed 23 mph    
Visibility 8 miles    
Events      
T = Trace of Precipitation, MM = Missing Value Source: NWS Daily Summary

Daily Weather History Graph

Daily Weather History Graph

Search for Another Location

Airport or City:

Trip Planner

Search our weather history database for the weather conditions in past years. The results will help you decide how hot, cold, wet, or windy it might be!

Date:

Astronomy

Jul. 19, 2013 Rise Set
Actual Time 5:52 AM EDT 8:22 PM EDT
Civil Twilight 5:21 AM EDT 8:53 PM EDT
Nautical Twilight 4:43 AM EDT 9:31 PM EDT
Astronomical Twilight 4:01 AM EDT 10:13 PM EDT
Moon 5:22 PM EDT (7/19) 2:30 AM EDT (7/19)
Length of Visible Light 15h 31m
Length of Day
14h 30m
Waxing Gibbous, 86% of the Moon is Illuminated
Jul 19
Waxing Gibbous
Jul 22
Full
Jul 29
Last Quarter
Aug 6
New
Aug 14
First Quarter

Hourly Weather History & Observations

Time (EDT) Temp. Heat Index Dew Point Humidity Pressure Visibility Wind Dir Wind Speed Gust Speed Precip Events Conditions
12:54 AM 80.1 °F 84.2 °F 73.0 °F 79% 30.04 in 8.0 mi SSW 8.1 mph - N/A   Clear
1:54 AM 79.0 °F - 73.0 °F 82% 30.03 in 8.0 mi SSW 5.8 mph - N/A   Clear
2:54 AM 78.1 °F - 73.0 °F 84% 30.03 in 8.0 mi SSW 5.8 mph - N/A   Clear
3:54 AM 78.1 °F - 73.0 °F 84% 30.02 in 8.0 mi SSW 3.5 mph - N/A   Clear
4:54 AM 77.0 °F - 73.9 °F 90% 30.02 in 6.0 mi SSW 3.5 mph - N/A   Clear
5:54 AM 77.0 °F - 73.9 °F 90% 30.02 in 4.0 mi SSW 3.5 mph - N/A   Clear
6:54 AM 80.1 °F 85.1 °F 75.0 °F 85% 30.03 in 5.0 mi SW 4.6 mph - N/A   Haze
7:54 AM 82.9 °F 90.8 °F 75.9 °F 79% 30.03 in 6.0 mi SW 9.2 mph - N/A   Haze
8:54 AM 86.0 °F 96.0 °F 75.9 °F 72% 30.02 in 7.0 mi SW 8.1 mph - N/A   Clear
9:54 AM 89.1 °F 100.2 °F 75.9 °F 65% 30.02 in 7.0 mi WSW 6.9 mph - N/A   Clear
10:54 AM 91.9 °F 103.2 °F 75.0 °F 58% 30.01 in 8.0 mi SW 11.5 mph - N/A   Clear
11:54 AM 93.0 °F 101.9 °F 73.0 °F 52% 30.00 in 9.0 mi SW 11.5 mph - N/A   Clear
12:54 PM 93.9 °F 103.4 °F 73.0 °F 51% 29.99 in 9.0 mi SSW 12.7 mph - N/A   Scattered Clouds
1:54 PM 95.0 °F 103.2 °F 72.0 °F 47% 29.97 in 10.0 mi SW 15.0 mph 20.7 mph N/A   Clear
2:54 PM 95.0 °F 102.5 °F 71.1 °F 46% 29.95 in 10.0 mi WSW 12.7 mph 17.3 mph N/A   Clear
3:54 PM 93.9 °F 102.1 °F 72.0 °F 49% 29.94 in 9.0 mi SSW 13.8 mph 20.7 mph N/A   Clear
4:54 PM 93.9 °F 103.4 °F 73.0 °F 51% 29.91 in 8.0 mi SW 15.0 mph - N/A   Clear
5:54 PM 91.9 °F 101.3 °F 73.9 °F 55% 29.90 in 8.0 mi WSW 12.7 mph - N/A   Clear
6:54 PM 91.0 °F 101.6 °F 75.0 °F 59% 29.91 in 7.0 mi SW 9.2 mph - N/A   Clear
7:54 PM 88.0 °F 98.5 °F 75.9 °F 67% 29.90 in 7.0 mi SW 6.9 mph - N/A   Clear
8:54 PM 86.0 °F 96.9 °F 77.0 °F 74% 29.92 in 8.0 mi SW 5.8 mph - N/A   Clear
9:54 PM 84.9 °F 95.3 °F 77.0 °F 77% 29.92 in 8.0 mi SW 6.9 mph - N/A   Clear
10:54 PM 84.9 °F 95.3 °F 77.0 °F 77% 29.91 in 8.0 mi SSW 10.4 mph - N/A   Clear
11:54 PM 84.0 °F 92.6 °F 75.9 °F 76% 29.91 in 9.0 mi SW 10.4 mph - N/A   Clear